This is the latest recevied weather packets stored in our database for station/object SV9TNF-58. If no packets are shown the sender has not sent any weather packets the latest 10 day(s).
| Time | Temp. | Humidity | Pressure | Rain* | Wind** | Luminosity | Snow |
|---|---|---|---|---|---|---|---|
| 1788146257 | 78° F | 58% | 761.5 mmHg | 0 in | 0 mph | - | - |
| 1788145957 | 78° F | 58% | 761.5 mmHg | 0 in | 5 mph, 206° | - | - |
| 1788145657 | 78° F | 58% | 761.5 mmHg | 0 in | 7 mph, 224° | - | - |
| 1788145356 | 79° F | 58% | 761.5 mmHg | 0 in | 4 mph, 212° | - | - |
| 1788145057 | 79° F | 57% | 761.2 mmHg | 0 in | 8 mph, 224° | - | - |
| 1788144756 | 79° F | 58% | 761.2 mmHg | 0 in | 13 mph, 199° | - | - |
| 1788144456 | 79° F | 59% | 761.2 mmHg | 0 in | 4 mph, 221° | - | - |
| 1788144156 | 79° F | 58% | 761.2 mmHg | 0 in | 8 mph, 198° | - | - |
| 1788143856 | 79° F | 58% | 761.2 mmHg | 0 in | 13 mph, 221° | - | - |
| 1788143556 | 79° F | 57% | 761.2 mmHg | 0 in | 15 mph, 266° | - | - |
| 1788143256 | 80° F | 57% | 761.2 mmHg | 0 in | 11 mph, 212° | - | - |
| 1788142955 | 79° F | 58% | 761.2 mmHg | 0 in | 12 mph, 209° | - | - |
| 1788142656 | 80° F | 57% | 761.2 mmHg | 0 in | 14 mph, 212° | - | - |
| 1788142355 | 80° F | 57% | 761.2 mmHg | 0 in | 17 mph, 211° | - | - |
| 1788142056 | 80° F | 57% | 761.2 mmHg | 0 in | 9 mph, 198° | - | - |
| 1788141755 | 80° F | 57% | 761.2 mmHg | 0 in | 18 mph, 236° | - | - |
| 1788141455 | 80° F | 57% | 761.5 mmHg | 0 in | 9 mph, 192° | - | - |
| 1788141155 | 80° F | 57% | 761.5 mmHg | 0 in | 15 mph, 203° | - | - |
| 1788140855 | 80° F | 57% | 761.5 mmHg | 0 in | 4 mph, 254° | - | - |
| 1788140555 | 80° F | 58% | 761.5 mmHg | 0 in | 7 mph, 222° | - | - |
| 1788140255 | 80° F | 57% | 761.5 mmHg | 0 in | 13 mph, 233° | - | - |
| 1788139954 | 80° F | 56% | 761.5 mmHg | 0 in | 2 mph, 307° | - | - |
| 1788139654 | 80° F | 56% | 761.5 mmHg | 0 in | 8 mph, 219° | - | - |
| 1788139354 | 80° F | 58% | 761.5 mmHg | 0 in | 4 mph, 276° | - | - |
| 1788139054 | 81° F | 55% | 761.5 mmHg | 0 in | 4 mph, 312° | - | - |
* Rain latest hour (hover to see other rain measurements)
** Current wind speed in m/s (hover to see current wind gust speed)